Time,TemperatureF,DewpointF,PressureIn,WindDirection,WindDirectionDegrees,WindSpeedMPH,WindSpeedGustMPH,Humidity,HourlyPrecipIn,Conditions,Clouds,dailyrainin,SoftwareType,DateUTC
2013-01-23 00:02:00,29.0,19.0,30.12,South,182,3.0,6.0,65,0.00,,,0.00,,2013-01-23 08:02:00,
2013-01-23 00:12:00,29.0,19.0,30.12,South,182,3.0,6.0,65,0.00,,,0.00,,2013-01-23 08:12:00,
2013-01-23 00:22:00,29.0,19.0,30.11,South,190,3.0,5.0,65,0.00,,,0.00,,2013-01-23 08:22:00,
2013-01-23 00:32:00,30.0,19.0,30.11,SSW,201,2.0,6.0,64,0.00,,,0.00,,2013-01-23 08:32:00,
2013-01-23 00:42:00,30.0,19.0,30.11,SSW,201,2.0,6.0,64,0.00,,,0.00,,2013-01-23 08:42:00,
2013-01-23 00:53:00,30.0,19.0,30.10,SSW,192,3.0,7.0,64,0.00,,,0.00,,2013-01-23 08:53:00,
2013-01-23 01:02:00,30.0,19.0,30.10,South,191,4.0,8.0,63,0.00,,,0.00,,2013-01-23 09:02:00,
2013-01-23 01:12:00,30.0,19.0,30.10,South,191,4.0,8.0,63,0.00,,,0.00,,2013-01-23 09:12:00,
2013-01-23 01:22:00,30.0,19.0,30.09,SSW,194,3.0,7.0,63,0.00,,,0.00,,2013-01-23 09:22:00,
2013-01-23 01:32:00,29.0,19.0,30.09,South,190,0.0,4.0,65,0.00,,,0.00,,2013-01-23 09:32:00,
2013-01-23 01:43:00,29.0,19.0,30.09,South,190,0.0,4.0,65,0.00,,,0.00,,2013-01-23 09:43:00,
2013-01-23 01:53:00,29.0,19.0,30.09,South,187,2.0,7.0,65,0.00,,,0.00,,2013-01-23 09:53:00,
2013-01-23 02:02:00,30.0,19.0,30.09,South,185,1.0,3.0,64,0.00,,,0.00,,2013-01-23 10:02:00,
2013-01-23 02:12:00,30.0,19.0,30.09,South,185,1.0,3.0,64,0.00,,,0.00,,2013-01-23 10:12:00,
2013-01-23 02:22:00,30.0,19.0,30.09,South,185,0.0,3.0,64,0.00,,,0.00,,2013-01-23 10:22:00,
2013-01-23 02:32:00,30.0,19.0,30.09,South,185,1.0,3.0,64,0.00,,,0.00,,2013-01-23 10:32:00,
2013-01-23 02:42:00,30.0,19.0,30.09,South,185,1.0,3.0,64,0.00,,,0.00,,2013-01-23 10:42:00,
2013-01-23 02:53:00,30.0,19.0,30.09,South,185,0.0,2.0,64,0.00,,,0.00,,2013-01-23 10:53:00,
2013-01-23 03:02:00,30.0,19.0,30.08,South,185,1.0,4.0,64,0.00,,,0.00,,2013-01-23 11:02:00,
2013-01-23 03:11:00,30.0,19.0,30.08,South,185,1.0,4.0,64,0.00,,,0.00,,2013-01-23 11:11:00,
2013-01-23 03:22:00,30.0,20.0,30.06,South,185,1.0,2.0,66,0.00,,,0.00,,2013-01-23 11:22:00,
2013-01-23 03:32:00,30.0,19.0,30.06,South,184,3.0,7.0,64,0.00,,,0.00,,2013-01-23 11:32:00,
2013-01-23 03:42:00,30.0,19.0,30.06,South,184,3.0,7.0,64,0.00,,,0.00,,2013-01-23 11:42:00,
2013-01-23 03:53:00,30.0,19.0,30.06,South,188,3.0,6.0,63,0.00,,,0.00,,2013-01-23 11:53:00,
2013-01-23 04:02:00,30.0,20.0,30.05,South,188,1.0,4.0,65,0.00,,,0.00,,2013-01-23 12:02:00,
2013-01-23 04:12:00,30.0,20.0,30.05,South,188,1.0,4.0,65,0.00,,,0.00,,2013-01-23 12:12:00,
2013-01-23 04:22:00,30.0,20.0,30.04,South,180,1.0,3.0,65,0.00,,,0.00,,2013-01-23 12:22:00,
2013-01-23 04:32:00,31.0,20.0,30.04,SSW,194,2.0,7.0,63,0.00,,,0.00,,2013-01-23 12:32:00,
2013-01-23 04:42:00,31.0,20.0,30.04,SSW,194,2.0,7.0,63,0.00,,,0.00,,2013-01-23 12:42:00,
2013-01-23 04:53:00,32.0,20.0,30.03,SSW,204,1.0,5.0,61,0.00,,,0.00,,2013-01-23 12:53:00,
2013-01-23 05:03:00,31.0,20.0,30.02,SSW,193,3.0,5.0,62,0.00,,,0.00,,2013-01-23 13:03:00,
2013-01-23 05:12:00,31.0,20.0,30.02,SSW,193,3.0,5.0,62,0.00,,,0.00,,2013-01-23 13:12:00,
2013-01-23 05:22:00,32.0,19.0,30.02,SW,227,3.0,5.0,57,0.00,,,0.00,,2013-01-23 13:22:00,
2013-01-23 05:33:00,33.0,20.0,30.01,South,183,1.0,5.0,59,0.00,,,0.00,,2013-01-23 13:33:00,
2013-01-23 05:42:00,33.0,20.0,30.01,South,183,1.0,5.0,59,0.00,,,0.00,,2013-01-23 13:42:00,
2013-01-23 05:53:00,35.0,19.0,30.00,SW,234,4.0,8.0,51,0.00,,,0.00,,2013-01-23 13:53:00,
2013-01-23 06:02:00,37.0,18.0,29.99,SW,227,4.0,9.0,45,0.00,,,0.00,,2013-01-23 14:02:00,
2013-01-23 06:12:00,37.0,18.0,29.99,SW,227,4.0,9.0,45,0.00,,,0.00,,2013-01-23 14:12:00,
2013-01-23 06:23:00,38.0,17.0,29.99,SW,224,7.0,11.0,42,0.00,,,0.00,,2013-01-23 14:23:00,
2013-01-23 06:33:00,39.0,17.0,30.00,WSW,238,6.0,12.0,40,0.00,,,0.00,,2013-01-23 14:33:00,
2013-01-23 06:42:00,39.0,17.0,30.00,WSW,238,6.0,12.0,40,0.00,,,0.00,,2013-01-23 14:42:00,
2013-01-23 06:53:00,38.0,17.0,29.99,SW,225,4.0,9.0,42,0.00,,,0.00,,2013-01-23 14:53:00,
2013-01-23 07:02:00,38.0,18.0,29.98,WSW,238,4.0,9.0,43,0.00,,,0.00,,2013-01-23 15:02:00,
2013-01-23 07:12:00,38.0,18.0,29.98,WSW,238,4.0,9.0,43,0.00,,,0.00,,2013-01-23 15:12:00,
2013-01-23 07:22:00,38.0,18.0,29.98,WSW,255,4.0,10.0,43,0.00,,,0.00,,2013-01-23 15:22:00,
2013-01-23 07:33:00,39.0,17.0,29.98,WSW,238,5.0,9.0,41,0.00,,,0.00,,2013-01-23 15:33:00,
2013-01-23 07:43:00,39.0,17.0,29.98,WSW,238,5.0,9.0,41,0.00,,,0.00,,2013-01-23 15:43:00,
2013-01-23 07:53:00,39.0,17.0,29.97,WSW,257,6.0,11.0,41,0.00,,,0.00,,2013-01-23 15:53:00,
2013-01-23 08:02:00,41.0,17.0,29.97,SW,227,7.0,13.0,38,0.00,,,0.00,,2013-01-23 16:02:00,
2013-01-23 08:12:00,41.0,17.0,29.97,SW,227,7.0,13.0,38,0.00,,,0.00,,2013-01-23 16:12:00,
2013-01-23 08:22:00,41.0,17.0,29.97,SW,227,7.0,13.0,38,0.00,,,0.00,,2013-01-23 16:22:00,
2013-01-23 08:32:00,41.0,18.0,29.96,West,274,8.0,12.0,39,0.00,,,0.00,,2013-01-23 16:32:00,
2013-01-23 08:42:00,41.0,18.0,29.96,West,274,8.0,12.0,39,0.00,,,0.00,,2013-01-23 16:42:00,
2013-01-23 08:53:00,41.0,18.0,29.95,SW,217,8.0,13.0,39,0.00,,,0.00,,2013-01-23 16:53:00,
2013-01-23 09:03:00,41.0,18.0,29.95,SW,225,4.0,13.0,39,0.00,,,0.00,,2013-01-23 17:03:00,
2013-01-23 09:12:00,41.0,18.0,29.95,SW,225,4.0,13.0,39,0.00,,,0.00,,2013-01-23 17:12:00,
2013-01-23 09:22:00,42.0,18.0,29.95,SW,230,5.0,14.0,38,0.00,,,0.00,,2013-01-23 17:22:00,
2013-01-23 09:33:00,42.0,18.0,29.95,WSW,248,8.0,12.0,37,0.00,,,0.00,,2013-01-23 17:33:00,
2013-01-23 09:42:00,42.0,18.0,29.95,WSW,248,8.0,12.0,37,0.00,,,0.00,,2013-01-23 17:42:00,
2013-01-23 09:53:00,43.0,19.0,29.94,SSW,210,6.0,14.0,38,0.00,,,0.00,,2013-01-23 17:53:00,
2013-01-23 10:03:00,43.0,19.0,29.94,West,262,6.0,11.0,38,0.00,,,0.00,,2013-01-23 18:03:00,
2013-01-23 10:12:00,43.0,19.0,29.94,West,262,6.0,11.0,38,0.00,,,0.00,,2013-01-23 18:12:00,
2013-01-23 10:22:00,43.0,19.0,29.94,West,271,7.0,13.0,38,0.00,,,0.00,,2013-01-23 18:22:00,
2013-01-23 10:32:00,43.0,19.0,29.94,West,271,7.0,13.0,38,0.00,,,0.00,,2013-01-23 18:32:00,
2013-01-23 10:43:00,43.0,20.0,29.94,WSW,245,6.0,13.0,39,0.00,,,0.00,,2013-01-23 18:43:00,
2013-01-23 10:53:00,43.0,19.0,29.94,SW,235,6.0,16.0,38,0.00,,,0.00,,2013-01-23 18:53:00,
2013-01-23 11:02:00,43.0,20.0,29.95,SW,219,5.0,11.0,39,0.00,,,0.00,,2013-01-23 19:02:00,
2013-01-23 11:12:00,43.0,20.0,29.95,SW,219,5.0,11.0,39,0.00,,,0.00,,2013-01-23 19:12:00,
2013-01-23 11:22:00,43.0,22.0,29.94,SW,227,6.0,11.0,42,0.00,,,0.00,,2013-01-23 19:22:00,
2013-01-23 11:32:00,44.0,23.0,29.93,SW,219,10.0,16.0,43,0.00,,,0.00,,2013-01-23 19:32:00,
2013-01-23 11:42:00,44.0,23.0,29.93,SW,219,10.0,16.0,43,0.00,,,0.00,,2013-01-23 19:42:00,
2013-01-23 11:53:00,44.0,24.0,29.92,SW,232,8.0,13.0,45,0.00,,,0.00,,2013-01-23 19:53:00,
2013-01-23 12:02:00,44.0,24.0,29.90,SW,224,8.0,13.0,45,0.00,,,0.00,,2013-01-23 20:02:00,
2013-01-23 12:12:00,44.0,24.0,29.90,SW,224,8.0,13.0,45,0.00,,,0.00,,2013-01-23 20:12:00,
2013-01-23 12:22:00,44.0,26.0,29.91,WSW,248,9.0,14.0,48,0.00,,,0.00,,2013-01-23 20:22:00,
2013-01-23 12:32:00,44.0,28.0,29.89,SSW,209,10.0,19.0,52,0.00,,,0.00,,2013-01-23 20:32:00,
2013-01-23 12:42:00,44.0,28.0,29.89,SSW,209,10.0,19.0,52,0.00,,,0.00,,2013-01-23 20:42:00,
2013-01-23 12:53:00,44.0,28.0,29.89,WSW,242,8.0,17.0,53,0.00,,,0.00,,2013-01-23 20:53:00,
2013-01-23 13:02:00,45.0,29.0,29.88,SW,216,8.0,18.0,53,0.00,,,0.00,,2013-01-23 21:02:00,
2013-01-23 13:12:00,45.0,29.0,29.88,SW,216,8.0,18.0,53,0.00,,,0.00,,2013-01-23 21:12:00,
2013-01-23 13:22:00,45.0,29.0,29.88,SW,236,10.0,21.0,54,0.00,,,0.00,,2013-01-23 21:22:00,
2013-01-23 13:33:00,44.0,30.0,29.89,SW,217,7.0,25.0,58,0.00,,,0.00,,2013-01-23 21:33:00,
2013-01-23 13:42:00,44.0,30.0,29.89,SW,217,7.0,25.0,58,0.00,,,0.00,,2013-01-23 21:42:00,
2013-01-23 13:53:00,44.0,31.0,29.88,SW,236,11.0,23.0,60,0.00,,,0.00,,2013-01-23 21:53:00,
2013-01-23 14:02:00,44.0,31.0,29.88,SW,232,9.0,18.0,59,0.00,,,0.00,,2013-01-23 22:02:00,
2013-01-23 14:12:00,44.0,31.0,29.88,SW,232,9.0,18.0,59,0.00,,,0.00,,2013-01-23 22:12:00,
2013-01-23 14:22:00,44.0,30.0,29.88,SW,223,13.0,22.0,58,0.00,,,0.00,,2013-01-23 22:22:00,
2013-01-23 14:33:00,43.0,30.0,29.89,SW,225,8.0,20.0,61,0.00,,,0.00,,2013-01-23 22:33:00,
2013-01-23 14:42:00,43.0,30.0,29.89,SW,225,8.0,20.0,61,0.00,,,0.00,,2013-01-23 22:42:00,
2013-01-23 14:53:00,42.0,32.0,29.89,SSW,212,10.0,18.0,67,0.00,,,0.00,,2013-01-23 22:53:00,
2013-01-23 15:02:00,41.0,34.0,29.90,SW,229,10.0,18.0,76,0.00,,,0.00,,2013-01-23 23:02:00,
2013-01-23 15:12:00,41.0,34.0,29.90,SW,229,10.0,18.0,76,0.00,,,0.00,,2013-01-23 23:12:00,
2013-01-23 15:22:00,40.0,34.0,29.91,WSW,238,10.0,16.0,80,0.00,,,0.00,,2013-01-23 23:22:00,
2013-01-23 15:33:00,39.0,35.0,29.90,SW,234,10.0,16.0,84,0.00,,,0.00,,2013-01-23 23:33:00,
2013-01-23 15:42:00,39.0,35.0,29.90,SW,234,10.0,16.0,84,0.00,,,0.00,,2013-01-23 23:42:00,
2013-01-23 15:53:00,39.0,35.0,29.90,SW,232,11.0,17.0,84,0.00,,,0.00,,2013-01-23 23:53:00,
2013-01-23 16:02:00,40.0,35.0,29.90,SW,221,9.0,17.0,83,0.00,,,0.00,,2013-01-24 00:02:00,
2013-01-23 16:12:00,40.0,35.0,29.90,SW,221,9.0,17.0,83,0.00,,,0.00,,2013-01-24 00:12:00,
2013-01-23 16:22:00,40.0,34.0,29.90,East,92,11.0,22.0,79,0.00,,,0.00,,2013-01-24 00:22:00,
2013-01-23 16:32:00,41.0,34.0,29.90,SSW,205,10.0,18.0,77,0.00,,,0.00,,2013-01-24 00:32:00,
2013-01-23 16:42:00,41.0,34.0,29.90,SSW,205,10.0,18.0,77,0.00,,,0.00,,2013-01-24 00:42:00,
2013-01-23 16:53:00,41.0,34.0,29.91,WSW,243,8.0,17.0,75,0.00,,,0.00,,2013-01-24 00:53:00,
2013-01-23 17:02:00,41.0,34.0,29.92,SW,227,7.0,15.0,77,0.00,,,0.00,,2013-01-24 01:02:00,
2013-01-23 17:12:00,41.0,34.0,29.92,SW,227,7.0,15.0,77,0.00,,,0.00,,2013-01-24 01:12:00,
2013-01-23 17:22:00,40.0,34.0,29.92,SW,227,6.0,12.0,78,0.00,,,0.00,,2013-01-24 01:22:00,
2013-01-23 17:32:00,40.0,34.0,29.93,WSW,248,5.0,12.0,78,0.00,,,0.00,,2013-01-24 01:32:00,
2013-01-23 17:42:00,40.0,34.0,29.93,WSW,248,5.0,12.0,78,0.00,,,0.00,,2013-01-24 01:42:00,
2013-01-23 17:52:00,41.0,34.0,29.93,SSW,205,7.0,14.0,77,0.00,,,0.00,,2013-01-24 01:52:00,
2013-01-23 18:02:00,41.0,34.0,29.93,SW,217,9.0,15.0,77,0.00,,,0.00,,2013-01-24 02:02:00,
2013-01-23 18:12:00,41.0,34.0,29.93,SW,217,9.0,15.0,77,0.00,,,0.00,,2013-01-24 02:12:00,
2013-01-23 18:22:00,41.0,35.0,29.93,SW,217,12.0,22.0,78,0.00,,,0.00,,2013-01-24 02:22:00,
2013-01-23 18:32:00,41.0,35.0,29.94,WSW,249,11.0,20.0,79,0.00,,,0.00,,2013-01-24 02:32:00,
2013-01-23 18:42:00,41.0,35.0,29.94,WSW,249,11.0,20.0,79,0.00,,,0.00,,2013-01-24 02:42:00,
2013-01-23 18:52:00,41.0,35.0,29.94,WSW,249,11.0,20.0,79,0.00,,,0.00,,2013-01-24 02:52:00,
2013-01-23 19:02:00,40.0,34.0,29.95,SW,216,11.0,21.0,80,0.00,,,0.00,,2013-01-24 03:02:00,
2013-01-23 19:12:00,40.0,34.0,29.95,SW,216,11.0,21.0,80,0.00,,,0.00,,2013-01-24 03:12:00,
2013-01-23 19:22:00,39.0,34.0,29.96,SSW,211,11.0,20.0,82,0.00,,,0.00,,2013-01-24 03:22:00,
2013-01-23 19:32:00,39.0,35.0,29.97,West,267,9.0,16.0,86,0.00,,,0.00,,2013-01-24 03:32:00,
2013-01-23 19:42:00,39.0,35.0,29.97,West,267,9.0,16.0,86,0.00,,,0.00,,2013-01-24 03:42:00,
2013-01-23 19:52:00,38.0,35.0,29.99,SSW,198,8.0,14.0,89,0.01,,,0.01,,2013-01-24 03:52:00,
2013-01-23 20:02:00,38.0,35.0,30.00,West,264,3.0,14.0,88,0.01,,,0.01,,2013-01-24 04:02:00,
2013-01-23 20:12:00,38.0,35.0,30.00,West,264,3.0,14.0,88,0.01,,,0.01,,2013-01-24 04:12:00,
2013-01-23 20:22:00,37.0,34.0,30.01,SSW,198,5.0,13.0,88,0.01,,,0.01,,2013-01-24 04:22:00,
2013-01-23 20:32:00,37.0,34.0,30.01,SW,216,3.0,9.0,88,0.01,,,0.01,,2013-01-24 04:32:00,
2013-01-23 20:42:00,37.0,34.0,30.01,SW,216,3.0,9.0,88,0.01,,,0.01,,2013-01-24 04:42:00,
2013-01-23 20:53:00,37.0,34.0,30.02,SW,219,5.0,10.0,88,0.00,,,0.01,,2013-01-24 04:53:00,
2013-01-23 21:03:00,37.0,34.0,30.03,SSW,205,4.0,8.0,90,0.00,,,0.01,,2013-01-24 05:03:00,
2013-01-23 21:12:00,37.0,34.0,30.03,SSW,205,4.0,8.0,90,0.00,,,0.01,,2013-01-24 05:12:00,
2013-01-23 21:22:00,36.0,34.0,30.03,SSW,207,4.0,8.0,91,0.00,,,0.01,,2013-01-24 05:22:00,
2013-01-23 21:32:00,36.0,34.0,30.03,SSW,212,4.0,7.0,91,0.00,,,0.01,,2013-01-24 05:32:00,
2013-01-23 21:42:00,36.0,34.0,30.03,SSW,212,4.0,7.0,91,0.00,,,0.01,,2013-01-24 05:42:00,
2013-01-23 21:53:00,36.0,34.0,30.04,SSW,213,3.0,9.0,91,0.00,,,0.01,,2013-01-24 05:53:00,
2013-01-23 22:02:00,36.0,33.0,30.05,SSW,209,5.0,9.0,90,0.00,,,0.01,,2013-01-24 06:02:00,
2013-01-23 22:12:00,36.0,33.0,30.05,SSW,209,5.0,9.0,90,0.00,,,0.01,,2013-01-24 06:12:00,
2013-01-23 22:22:00,36.0,33.0,30.05,SSW,209,5.0,9.0,90,0.00,,,0.01,,2013-01-24 06:22:00,
2013-01-23 22:32:00,36.0,33.0,30.06,SW,220,4.0,7.0,90,0.00,,,0.01,,2013-01-24 06:32:00,
2013-01-23 22:42:00,36.0,33.0,30.06,SW,220,4.0,7.0,90,0.00,,,0.01,,2013-01-24 06:42:00,
2013-01-23 22:52:00,36.0,33.0,30.05,SSW,204,5.0,12.0,89,0.00,,,0.01,,2013-01-24 06:52:00,
2013-01-23 23:02:00,36.0,33.0,30.06,South,182,4.0,8.0,88,0.00,,,0.01,,2013-01-24 07:02:00,
2013-01-23 23:12:00,36.0,33.0,30.06,South,182,4.0,8.0,88,0.00,,,0.01,,2013-01-24 07:12:00,
2013-01-23 23:22:00,36.0,34.0,30.07,SSW,193,4.0,10.0,92,0.00,,,0.01,,2013-01-24 07:22:00,
2013-01-23 23:32:00,36.0,33.0,30.09,SSW,196,3.0,7.0,88,0.00,,,0.01,,2013-01-24 07:32:00,
2013-01-23 23:42:00,36.0,33.0,30.09,SSW,196,3.0,7.0,88,0.00,,,0.01,,2013-01-24 07:42:00,
2013-01-23 23:53:00,36.0,33.0,30.09,SSW,192,4.0,7.0,88,0.00,,,0.01,,2013-01-24 07:53:00,